Flag for New Zealand Weather past 2 weeks in Wellington, New Zealand

Now
63 °F

Passing clouds.


Feels Like: 63 °F
Forecast: 61 / 65 °F
Wind: 18 mph from North

Location: Wellington Airport

Current Time: Apr 25, 2015 at 9:06:42 PM

Latest Report: Apr 25, 2015 at 8:30 PM


Visibility: N/A

Pressure: 30.15 "Hg

Humidity: 68%

Dew point: 52 °F

Location of WellingtonLocation

Historic Weather in Wellington — Graph

°F

Wellington temperature yesterday

Maximum temperature yesterday: 63 °F (at 11:30 AM)
Minimum temperature yesterday: 46 °F (at 5:00 AM)
Average temperature yesterday: 55 °F

Past Weeks' High & Low Weather Summary

 TemperatureHumidityPressure
High66 °F (Apr 20, 11:00 AM)100% (Apr 10, 10:30 PM)30.51 "Hg (Apr 10, 10:30 PM)
Low45 °F (Apr 15, 3:30 AM)47% (Apr 14, 11:00 PM)29.12 "Hg (Apr 13, 6:30 AM)
Average57 °F76%30.05 "Hg
* Reported Apr 10 7:00 PM — Apr 25 7:30 PM, Wellington, Weather by CustomWeather, © 2015

Note: Actual official high and low records may vary slightly from our data, if they occured in-between our weather recording intervals... More about our weather records

Advertising

Wellington weather history for previous 24 hours

 ConditionsComfort  
Time TempWeatherWind HumidityBarometerVisibility
7:30 PM
Sat, Apr 25
63 °FPassing clouds.18 mph68%30.15 "HgN/A
7:00 PM63 °FPassing clouds.20 mph73%30.15 "HgN/A
6:30 PM63 °FPassing clouds.17 mph68%30.15 "HgN/A
6:00 PM63 °FPassing clouds.17 mph68%30.15 "HgN/A
5:30 PM63 °FPassing clouds.20 mph68%30.15 "HgN/A
5:00 PM63 °FPassing clouds.20 mph68%30.15 "HgN/A
4:30 PM63 °FMore clouds than sun.17 mph73%30.15 "HgN/A
4:00 PM63 °FOvercast.17 mph68%30.15 "HgN/A
3:30 PM64 °FPartly sunny.18 mph64%30.15 "HgN/A
3:00 PM63 °FPartly sunny.22 mph68%30.15 "HgN/A
2:30 PM64 °FBroken clouds.20 mph64%30.18 "HgN/A
2:00 PM63 °FMostly cloudy.20 mph77%30.18 "HgN/A
1:30 PM63 °FPartly sunny.20 mph77%30.18 "HgN/A
1:00 PM63 °FBroken clouds.22 mph77%30.21 "HgN/A
12:30 PM63 °FBroken clouds.21 mph77%30.21 "HgN/A
12:00 PM64 °FScattered clouds.21 mph73%30.24 "HgN/A
11:30 AM64 °FScattered clouds.22 mph73%30.24 "HgN/A
11:00 AM64 °FPartly sunny.20 mph73%30.24 "HgN/A
10:30 AM63 °FPartly sunny.21 mph73%30.27 "HgN/A
10:00 AM63 °FPartly sunny.20 mph73%30.27 "HgN/A
9:30 AM61 °FPartly sunny.20 mph77%30.27 "HgN/A
9:00 AM61 °FPartly sunny.16 mph77%30.27 "HgN/A
8:30 AM59 °FPartly sunny.14 mph82%30.27 "HgN/A
8:00 AM59 °FPartly sunny.10 mph82%30.27 "HgN/A
7:30 AM57 °FOvercast.8 mph88%30.27 "HgN/A
7:00 AM55 °FMostly cloudy.8 mph88%30.27 "HgN/A
6:30 AM55 °FPartly sunny.8 mph88%30.27 "HgN/A
6:00 AM55 °FPartly sunny.10 mph88%30.27 "HgN/A
5:30 AM55 °FCool.9 mph88%30.30 "HgN/A
5:00 AM54 °FCool.7 mph88%30.30 "HgN/A
4:30 AM55 °FCool.8 mph82%30.30 "HgN/A
4:00 AM55 °FCool.9 mph77%30.30 "HgN/A
3:30 AM55 °FCool.12 mph77%30.30 "HgN/A
3:00 AM54 °FCool.9 mph82%30.30 "HgN/A
2:30 AM55 °FCool.12 mph77%30.30 "HgN/A
2:00 AM54 °FCool.10 mph88%30.33 "HgN/A
1:30 AM54 °FCool.9 mph88%30.33 "HgN/A
1:00 AM55 °FCool.8 mph82%30.33 "HgN/A
12:30 AM55 °FCool.9 mph82%30.33 "HgN/A
12:00 AM55 °FCool.7 mph82%30.33 "HgN/A
11:30 PM
Fri, Apr 24
55 °FCool.9 mph88%30.33 "HgN/A
11:00 PM55 °FCool.7 mph82%30.33 "HgN/A
10:30 PM55 °FCool.7 mph88%30.33 "HgN/A
10:00 PM55 °FCool.6 mph88%30.33 "HgN/A
9:30 PM57 °FCool.7 mph82%30.33 "HgN/A
9:00 PM57 °FCool.7 mph82%30.33 "HgN/A
Weather by CustomWeather, © 2015

See weather overviewHow to use our weather pages